Back to catalog

STARLINK-37451

AliveCommunicationsVLEO
NORAD 69471·PAYLOAD·🇺🇸 United States

Launched Jun 8, 2026 from Cape Canaveral Space Force Station

Loading…

Next Passes (next 24 hours)

TLE

FreshSource: CelesTrak SupGP

Epoch: Sep 14, 2026, 15:36 UTC

1 69471C 26127AE  26257.65048611  .00055617  00000+0  16435-2 0  2579
2 69471  53.1583 192.7071 0001300  93.7344  81.3935 15.34357160    10

Track STARLINK-37451 in real time with AllMySat

Download on the App Store